International Virtual Aviation Organisation

Russian Federation and Kazakhstan MCD

 

Карточка аэропорта UOOO

Внимание!
Информация на этой странице в стадии наполнения.
Если вы не увидели какой-то информации, или заметили неточность - пожалуйста сообщите нам!
Спасибо!
Команда RU-STAFF
Название аэропортаАлыкель
Название аэропорта (англ.)Alykel
Превышение574 ft. (175 m.)
Координаты69°19.02', 87°19.02'
Высота перехода1200m
Эшелон переходаQFE>744:FL60;744>QFE>717:FL70;717>QFE:FL80
Коды ответчика5401-5427
Зона ОрВДКрасноярск РПИ (UNKL)
Данные METARUOOO 091300Z 26008MPS 220V280 9999 BKN023CB 18/16 Q1005 R19/CLRD60 NOSIG RMK QFE737/0983
Проноз погоды (TAF)UOOO 091057Z 0912/1012 20008G14MPS 9999 BKN030CB TEMPO 0912/0920 26009G14MPS 4000 -SHRA BKN016CB TEMPO 0920/1001 27004G09MPS 0500 FG VV002 BECMG 1001/1003 33005G10MPS TEMPO 1003/1009 27003G09MPS 5000 -SHRA BKN016CB
NOTAMshow/hide NOTAM
AWOS   TABLE

Информация о ВПП

ВПП Длина ВПП (м.) Покрытие Курс ВПП Частота ILS
013430Бетон13109.5
193430Бетон193110.3

Диспетчерские позиции

Позывной Наименование органа УВД Частота
UOOO_GNDНорильск - Руление121.700
UOOO_TWRНорильск - Старт118.300
UOOO_APPНорильск - Круг120.400



Спутниковое изображение